User: anonymous   Login
Location: Unspecified
(0.0000°N, 0.0000°E)
Time: 01:28:57
(UTC+00:00)
Language:

Oscar 15 - Orbit

View from above orbital plane
View from above orbital plane
View from above satellite
View from above satellite

Ground track
Ground track

The orbit data is extracted from the following two-line orbital elements,

1 20438U 90005C   17266.86526154 -.00000002  00000-0  16504-4 0  9993
2 20438  98.7209 214.8298 0009058 310.3043 108.8772 14.30996562444396
Epoch (UTC): 23 September 2017 20:45:58
Eccentricity: 0.0009058
inclination: 98.7209°
perigee height: 782 km
apogee height: 795 km
right ascension of ascending node: 214.8298°
argument of perigee: 310.3043°
revolutions per day: 14.30996562
mean anomaly at epoch: 108.8772°
orbit number at epoch: 44439

The dashed part of the orbit path shows where the satellite is in the earth's shadow,  

DLR